TimeCST,TemperatureF,Dew PointF,Humidity,Sea Level PressureIn,VisibilityMPH,Wind Direction,Wind SpeedMPH,Gust SpeedMPH,PrecipitationIn,Events,Conditions,WindDirDegrees,DateUTC
12:15 AM,27.0,26.4,98,30.28,10.0,SE,4.6,-,N/A,,Clear,130,2013-03-07 06:15:00
12:35 AM,27.5,26.6,96,30.28,10.0,ESE,5.8,-,N/A,,Clear,120,2013-03-07 06:35:00
12:55 AM,27.3,26.4,96,30.28,10.0,ESE,5.8,-,N/A,,Clear,120,2013-03-07 06:55:00
1:15 AM,27.1,25.7,94,30.26,10.0,ESE,8.1,-,N/A,,Clear,120,2013-03-07 07:15:00
1:35 AM,26.8,24.3,90,30.25,10.0,ESE,6.9,-,N/A,,Clear,120,2013-03-07 07:35:00
1:55 AM,26.6,23.9,90,30.26,10.0,ESE,6.9,-,N/A,,Clear,120,2013-03-07 07:55:00
2:15 AM,26.6,23.9,90,30.26,10.0,ESE,6.9,-,N/A,,Clear,120,2013-03-07 08:15:00
2:35 AM,26.1,23.7,91,30.26,10.0,ESE,6.9,-,N/A,,Clear,120,2013-03-07 08:35:00
2:55 AM,26.1,23.7,91,30.25,10.0,SE,9.2,-,N/A,,Clear,130,2013-03-07 08:55:00
3:15 AM,24.8,23.4,94,30.24,10.0,SE,10.4,-,N/A,,Clear,140,2013-03-07 09:15:00
3:35 AM,24.8,23.5,95,30.23,10.0,SE,8.1,-,N/A,,Clear,130,2013-03-07 09:35:00
3:55 AM,24.8,23.4,94,30.23,10.0,SE,8.1,-,N/A,,Clear,130,2013-03-07 09:55:00
4:15 AM,24.6,23.2,94,30.23,10.0,SE,8.1,-,N/A,,Clear,130,2013-03-07 10:15:00
4:55 AM,24.8,23.0,93,30.23,10.0,ESE,8.1,-,N/A,,Clear,120,2013-03-07 10:55:00
5:15 AM,24.8,23.0,93,30.22,10.0,ESE,6.9,-,N/A,,Clear,120,2013-03-07 11:15:00
5:35 AM,25.2,23.0,91,30.23,10.0,ESE,5.8,-,N/A,,Clear,110,2013-03-07 11:35:00
5:55 AM,24.8,22.8,92,30.23,10.0,ESE,8.1,-,N/A,,Clear,120,2013-03-07 11:55:00
6:15 AM,24.6,23.0,94,30.24,10.0,ESE,8.1,-,N/A,,Clear,120,2013-03-07 12:15:00
6:35 AM,24.3,22.6,94,30.24,10.0,ESE,8.1,-,N/A,,Clear,120,2013-03-07 12:35:00
6:55 AM,24.3,22.5,93,30.24,10.0,ESE,8.1,-,N/A,,Clear,120,2013-03-07 12:55:00
7:15 AM,24.4,22.6,93,30.25,10.0,ESE,8.1,-,N/A,,Clear,120,2013-03-07 13:15:00
7:35 AM,24.8,22.6,91,30.26,10.0,ESE,8.1,-,N/A,,Clear,120,2013-03-07 13:35:00
7:55 AM,25.3,23.0,91,30.26,10.0,ESE,10.4,-,N/A,,Clear,120,2013-03-07 13:55:00
8:35 AM,27.1,23.9,88,30.25,10.0,SE,15.0,19.6,N/A,,Clear,130,2013-03-07 14:35:00
8:55 AM,28.2,23.7,83,30.25,10.0,ESE,12.7,18.4,N/A,,Clear,120,2013-03-07 14:55:00
9:15 AM,29.5,24.4,81,30.25,10.0,ESE,11.5,-,N/A,,Clear,120,2013-03-07 15:15:00
9:35 AM,29.7,24.1,80,30.24,10.0,ESE,12.7,17.3,N/A,,Clear,110,2013-03-07 15:35:00
9:55 AM,31.1,25.2,79,30.23,10.0,ESE,12.7,17.3,N/A,,Clear,120,2013-03-07 15:55:00
10:15 AM,32.9,26.2,76,30.23,10.0,SE,15.0,-,N/A,,Clear,140,2013-03-07 16:15:00
10:35 AM,34.7,27.1,74,30.21,10.0,SE,16.1,19.6,N/A,,Clear,140,2013-03-07 16:35:00
10:55 AM,35.2,27.0,72,30.21,10.0,SE,13.8,-,N/A,,Clear,130,2013-03-07 16:55:00
11:15 AM,37.0,28.0,70,30.20,10.0,SE,13.8,19.6,N/A,,Clear,130,2013-03-07 17:15:00
11:35 AM,38.7,28.0,66,30.18,10.0,SE,18.4,21.9,N/A,,Clear,140,2013-03-07 17:35:00
11:55 AM,39.4,28.8,66,30.18,10.0,SSE,16.1,-,N/A,,Clear,150,2013-03-07 17:55:00
12:15 PM,41.0,31.8,70,30.18,10.0,SE,16.1,-,N/A,,Clear,130,2013-03-07 18:15:00
12:35 PM,41.7,32.2,69,30.17,10.0,ESE,13.8,19.6,N/A,,Clear,120,2013-03-07 18:35:00
12:55 PM,43.3,32.9,67,30.15,10.0,SE,15.0,19.6,N/A,,Clear,140,2013-03-07 18:55:00
1:15 PM,44.2,33.1,65,30.14,10.0,ESE,11.5,21.9,N/A,,Clear,120,2013-03-07 19:15:00
1:35 PM,46.2,34.2,63,30.13,10.0,ESE,11.5,21.9,N/A,,Clear,120,2013-03-07 19:35:00
1:55 PM,46.6,34.0,62,30.11,10.0,SE,16.1,-,N/A,,Clear,130,2013-03-07 19:55:00
2:15 PM,48.2,34.7,60,30.11,10.0,SE,15.0,20.7,N/A,,Clear,140,2013-03-07 20:15:00
2:35 PM,48.7,33.3,55,30.10,10.0,SE,18.4,23.0,N/A,,Clear,130,2013-03-07 20:35:00
2:55 PM,49.1,34.2,56,30.09,10.0,SE,17.3,-,N/A,,Clear,140,2013-03-07 20:55:00
3:15 PM,49.3,35.1,58,30.10,10.0,SE,15.0,21.9,N/A,,Clear,140,2013-03-07 21:15:00
3:35 PM,50.0,37.4,62,30.09,10.0,SSE,13.8,18.4,N/A,,Clear,150,2013-03-07 21:35:00
3:55 PM,50.4,38.3,63,30.09,10.0,SE,15.0,19.6,N/A,,Clear,140,2013-03-07 21:55:00
4:15 PM,50.2,39.0,66,30.10,10.0,ESE,11.5,-,N/A,,Clear,120,2013-03-07 22:15:00
4:35 PM,49.3,39.2,68,30.10,10.0,ESE,12.7,16.1,N/A,,Clear,120,2013-03-07 22:35:00
4:55 PM,49.1,39.0,68,30.10,10.0,ESE,10.4,16.1,N/A,,Clear,120,2013-03-07 22:55:00
5:15 PM,48.2,38.3,69,30.10,10.0,SE,9.2,-,N/A,,Clear,130,2013-03-07 23:15:00
5:35 PM,47.7,38.3,70,30.11,10.0,ESE,10.4,-,N/A,,Clear,120,2013-03-07 23:35:00
5:55 PM,45.7,35.8,68,30.11,10.0,ESE,9.2,16.1,N/A,,Clear,120,2013-03-07 23:55:00
7:35 PM,40.5,33.1,75,30.14,10.0,ESE,9.2,16.1,N/A,,Clear,110,2013-03-08 01:35:00
8:15 PM,38.7,32.2,78,30.15,10.0,ESE,10.4,16.1,N/A,,Clear,120,2013-03-08 02:15:00
8:35 PM,37.9,32.0,79,30.15,10.0,ESE,10.4,-,N/A,,Clear,110,2013-03-08 02:35:00
8:55 PM,37.2,32.0,81,30.16,10.0,ESE,9.2,-,N/A,,Clear,120,2013-03-08 02:55:00
9:15 PM,36.5,32.0,84,30.16,10.0,ESE,9.2,-,N/A,,Clear,120,2013-03-08 03:15:00
9:35 PM,35.6,31.8,86,30.17,10.0,ESE,10.4,-,N/A,,Clear,120,2013-03-08 03:35:00
9:55 PM,35.1,31.6,87,30.18,10.0,ESE,11.5,-,N/A,,Clear,120,2013-03-08 03:55:00
10:15 PM,34.7,30.9,86,30.18,10.0,ESE,9.2,-,N/A,,Clear,120,2013-03-08 04:15:00
10:35 PM,34.5,30.2,84,30.19,10.0,ESE,8.1,-,N/A,,Clear,120,2013-03-08 04:35:00
10:55 PM,34.7,29.8,82,30.19,10.0,ESE,6.9,-,N/A,,Clear,120,2013-03-08 04:55:00
11:15 PM,33.8,29.3,84,30.19,10.0,ESE,6.9,-,N/A,,Clear,120,2013-03-08 05:15:00
11:35 PM,33.4,29.3,85,30.19,10.0,ESE,8.1,-,N/A,,Clear,120,2013-03-08 05:35:00
11:55 PM,32.9,28.9,85,30.18,10.0,ESE,9.2,-,N/A,,Clear,120,2013-03-08 05:55:00